Simultaneous Nadir Overpasses (SNOs) Predictions

Prediction of SNOs between GOES-15 and NPP Satellite Orbit:

Table of predicted SNOs for the next 14.0 days since TLE Epoch: 12/14/2024
Index Date Time (GOES-15) GOES-15 Lat,Lon NPP Lat,Lon Distance(km) Time Diff (sec)
1 12/15/2024 09:33:51 0.02, 61.47 -0.86, 57.58 443.20 80
2 12/16/2024 09:17:48 0.01, 61.46 0.17, 62.10 73.36 80
3 12/18/2024 21:20:56 -0.01, 61.37 -0.04, 61.34 4.03 80
4 12/21/2024 09:21:32 0.02, 61.45 -0.18, 60.56 101.79 80
5 12/22/2024 09:05:29 0.02, 61.45 0.80, 65.09 414.75 80
6 12/23/2024 21:27:20 -0.03, 61.35 0.29, 59.80 176.05 80
7 12/24/2024 21:05:56 -0.02, 61.35 -0.69, 64.33 339.54 80
8 12/26/2024 09:27:55 0.03, 61.46 -0.54, 59.03 277.52 80
9 12/27/2024 09:11:52 0.02, 61.46 0.51, 63.54 238.48 80
